Location: Beaurecueil
(43.5122°N, 5.5450°E)
Time: 20:40:30
(UTC+00:00)

NOSS 2-2 (C) - Pass Details

Date: 18 September 2020
Orbit: 468 x 1740 km, 63.3° (Epoch: 19 October)

Event Time Altitude Azimuth Distance (km) Brightness Sun altitude
Rises 18:13:44 0° 191° (S) 2,539 6.7 -6.6°
Reaches altitude 10° 18:16:01 10° 179° (S) 1,626 5.6 -7.0°
Maximum altitude 18:19:04 28° 117° (ESE) 906 3.9 -7.5°
Drops below altitude 10° 18:22:15 10° 57° (ENE) 1,705 5.4 -8.1°
Sets 18:24:43 0° 46° (NE) 2,691 6.5 -8.5°
